SWA3842 KLAS-KPHX

Flight info

Callsign SWA3842
Flight time 0h 45m
Altitude 29000
Route RASLR3 ZAYNE WOTRO BRUSR1
Aircraft B38M/M-SADE2E3GHIJ4J7P2RWZ/LB1D1

Departure

Time 2026-04-30 18:38
Airport Harry Reid International Airport (KLAS)

Arrival

Time 2026-04-30 19:23
Airport Phoenix Sky Harbor International Airport (KPHX)
Time Latitude Longitude Altitude Speed Heading
2026-04-30 18:21 36.08286 -115.15025 2190 ft 0 kts 261°
2026-04-30 18:26 36.08288 -115.15007 2193 ft 2 kts 264°
2026-04-30 18:27 36.08282 -115.14969 2190 ft 2 kts 327°
2026-04-30 18:27 36.08267 -115.14959 2193 ft 2 kts 337°
2026-04-30 18:28 36.08236 -115.14960 2190 ft 2 kts 32°
2026-04-30 18:28 36.08222 -115.14971 2192 ft 2 kts 31°
2026-04-30 18:28 36.08191 -115.14984 2191 ft 2 kts 352°
2026-04-30 18:29 36.08175 -115.14979 2192 ft 2 kts 356°
2026-04-30 18:29 36.08162 -115.14983 2190 ft 0 kts 40°
2026-04-30 18:32 36.08173 -115.14962 2190 ft 0 kts 82°
2026-04-30 18:32 36.08173 -115.14961 2190 ft 1 kts 85°
2026-04-30 18:33 36.08171 -115.14952 2190 ft 1 kts 109°
2026-04-30 18:33 36.08092 -115.14914 2192 ft 13 kts 163°
2026-04-30 18:33 36.07985 -115.14860 2192 ft 19 kts 155°
2026-04-30 18:34 36.07862 -115.14778 2191 ft 22 kts 141°
2026-04-30 18:34 36.07759 -115.14418 2190 ft 24 kts 94°
2026-04-30 18:34 36.07756 -115.14200 2190 ft 26 kts 89°
2026-04-30 18:35 36.07759 -115.13975 2192 ft 25 kts 90°
2026-04-30 18:35 36.07761 -115.13764 2191 ft 24 kts 88°
2026-04-30 18:35 36.07760 -115.13553 2193 ft 25 kts 91°
2026-04-30 18:36 36.07759 -115.13100 2191 ft 29 kts 88°
2026-04-30 18:36 36.07756 -115.12849 2192 ft 30 kts 93°
2026-04-30 18:36 36.07762 -115.12320 2191 ft 29 kts 88°
2026-04-30 18:37 36.07725 -115.12130 2191 ft 18 kts 151°
2026-04-30 18:37 36.07643 -115.12192 2192 ft 17 kts 269°
2026-04-30 18:37 36.07643 -115.12436 2191 ft 58 kts 270°
2026-04-30 18:37 36.07642 -115.13271 2192 ft 133 kts 270°
2026-04-30 18:38 36.07634 -115.14662 2221 ft 188 kts 273°
2026-04-30 18:38 36.07597 -115.16320 3005 ft 191 kts 272°
2026-04-30 18:38 36.07601 -115.17958 3960 ft 190 kts 272°
2026-04-30 18:38 36.07611 -115.19666 4655 ft 211 kts 274°
2026-04-30 18:39 36.07525 -115.21588 5230 ft 236 kts 264°
2026-04-30 18:39 36.07230 -115.23692 5875 ft 260 kts 255°
2026-04-30 18:39 36.06296 -115.25684 6502 ft 281 kts 224°
2026-04-30 18:39 36.04600 -115.26986 7150 ft 295 kts 199°
2026-04-30 18:40 36.02668 -115.27829 7456 ft 298 kts 199°
2026-04-30 18:40 36.00661 -115.28451 7969 ft 296 kts 178°
2026-04-30 18:40 35.98678 -115.27982 9079 ft 292 kts 155°
2026-04-30 18:40 35.96951 -115.26635 9972 ft 296 kts 138°
2026-04-30 18:41 35.95339 -115.24962 10674 ft 311 kts 138°
2026-04-30 18:41 35.93648 -115.23174 11291 ft 328 kts 137°
2026-04-30 18:41 35.91904 -115.21266 12049 ft 337 kts 132°
2026-04-30 18:41 35.90557 -115.18903 13042 ft 339 kts 119°
2026-04-30 18:42 35.89329 -115.16412 13942 ft 346 kts 120°
2026-04-30 18:42 35.86816 -115.11217 15627 ft 359 kts 114°
2026-04-30 18:42 35.86004 -115.08297 16473 ft 363 kts 104°
2026-04-30 18:45 35.78292 -114.76588 23834 ft 406 kts 103°
2026-04-30 18:45 35.77485 -114.73289 24384 ft 409 kts 103°
2026-04-30 18:45 35.76662 -114.69921 24941 ft 412 kts 103°
2026-04-30 18:46 35.75830 -114.66524 25472 ft 416 kts 104°
2026-04-30 18:46 35.74990 -114.63103 26000 ft 419 kts 104°
2026-04-30 18:46 35.74144 -114.59657 26544 ft 422 kts 104°
2026-04-30 18:46 35.73290 -114.56184 27041 ft 425 kts 104°
2026-04-30 18:47 35.72428 -114.52678 27546 ft 429 kts 104°
2026-04-30 18:47 35.71556 -114.49141 28017 ft 433 kts 105°
2026-04-30 18:47 35.70680 -114.45624 28520 ft 436 kts 107°
2026-04-30 18:47 35.69357 -114.42225 28695 ft 443 kts 123°
2026-04-30 18:48 35.67300 -114.39417 28841 ft 445 kts 138°
2026-04-30 18:48 35.62554 -114.34301 28862 ft 456 kts 138°
2026-04-30 18:49 35.57774 -114.29231 28876 ft 456 kts 139°
2026-04-30 18:49 35.52954 -114.24149 28874 ft 455 kts 139°
2026-04-30 18:50 35.48148 -114.19094 28902 ft 454 kts 139°
2026-04-30 18:50 35.43391 -114.14097 28934 ft 453 kts 139°
2026-04-30 18:51 35.38606 -114.09078 28968 ft 452 kts 139°
2026-04-30 18:51 35.33827 -114.04073 28999 ft 452 kts 138°
2026-04-30 18:51 35.31666 -114.01297 29008 ft 449 kts 124°
2026-04-30 18:52 35.30228 -113.97926 29021 ft 446 kts 108°
2026-04-30 18:52 35.28533 -113.90651 29016 ft 446 kts 103°
2026-04-30 18:53 35.26957 -113.83296 29016 ft 446 kts 103°
2026-04-30 18:53 35.25427 -113.75979 28988 ft 446 kts 103°
2026-04-30 18:54 35.23889 -113.68619 28949 ft 447 kts 103°
2026-04-30 18:54 35.22447 -113.61216 28918 ft 447 kts 101°
2026-04-30 18:55 35.21039 -113.53790 28884 ft 447 kts 102°
2026-04-30 18:55 35.18923 -113.42725 28869 ft 447 kts 102°
2026-04-30 18:56 35.16494 -113.31710 28858 ft 448 kts 117°
2026-04-30 18:57 35.11398 -113.22064 28878 ft 451 kts 123°
2026-04-30 18:57 35.07917 -113.15681 28877 ft 451 kts 123°
2026-04-30 18:58 35.02665 -113.06173 28876 ft 451 kts 123°
2026-04-30 18:59 34.97396 -112.96656 28875 ft 451 kts 124°
2026-04-30 19:00 34.90369 -112.84002 28867 ft 451 kts 125°
2026-04-30 19:01 34.83340 -112.71392 28902 ft 449 kts 126°
2026-04-30 19:02 34.78057 -112.61944 28973 ft 451 kts 127°
2026-04-30 19:03 34.70986 -112.49359 28884 ft 447 kts 130°
2026-04-30 19:03 34.66528 -112.44444 27896 ft 426 kts 144°
2026-04-30 19:04 34.61972 -112.39930 26852 ft 422 kts 145°
2026-04-30 19:04 34.57448 -112.35502 25816 ft 414 kts 144°
2026-04-30 19:05 34.52983 -112.31145 24760 ft 409 kts 144°
2026-04-30 19:05 34.48562 -112.26836 23714 ft 405 kts 144°
2026-04-30 19:06 34.43939 -112.23047 22451 ft 397 kts 163°
2026-04-30 19:06 34.41295 -112.22239 22019 ft 389 kts 169°
2026-04-30 19:06 34.36099 -112.20823 21062 ft 381 kts 170°
2026-04-30 19:07 34.30934 -112.19472 20110 ft 377 kts 171°
2026-04-30 19:07 34.28377 -112.18808 19649 ft 374 kts 171°
2026-04-30 19:08 34.23302 -112.17496 18717 ft 370 kts 171°
2026-04-30 19:08 34.18288 -112.16200 17761 ft 367 kts 171°
2026-04-30 19:08 34.15828 -112.15565 17359 ft 353 kts 170°
2026-04-30 19:09 34.11246 -112.14384 16596 ft 326 kts 171°
2026-04-30 19:09 34.09055 -112.13847 16124 ft 318 kts 175°
2026-04-30 19:09 34.06874 -112.13917 15587 ft 310 kts 188°
2026-04-30 19:10 34.02575 -112.14390 14649 ft 309 kts 187°
2026-04-30 19:10 33.98268 -112.14867 13685 ft 314 kts 187°
2026-04-30 19:11 33.96108 -112.15108 13129 ft 318 kts 187°
2026-04-30 19:11 33.91664 -112.15604 12089 ft 322 kts 187°
2026-04-30 19:11 33.89458 -112.16017 11649 ft 321 kts 192°
2026-04-30 19:12 33.87267 -112.16497 11294 ft 318 kts 191°
2026-04-30 19:12 33.85114 -112.16955 10924 ft 309 kts 191°
2026-04-30 19:12 33.83046 -112.17390 10573 ft 301 kts 191°
2026-04-30 19:13 33.79009 -112.18227 9848 ft 290 kts 190°
2026-04-30 19:13 33.75022 -112.19053 9067 ft 290 kts 190°
2026-04-30 19:13 33.73028 -112.19474 8643 ft 292 kts 190°
2026-04-30 19:14 33.71045 -112.19893 8279 ft 283 kts 190°
2026-04-30 19:14 33.69137 -112.20295 7938 ft 273 kts 190°
2026-04-30 19:14 33.67320 -112.20679 7590 ft 265 kts 190°
2026-04-30 19:14 33.65519 -112.21059 7245 ft 261 kts 189°
2026-04-30 19:15 33.63761 -112.21430 6938 ft 251 kts 189°
2026-04-30 19:15 33.60433 -112.22132 6328 ft 235 kts 189°
2026-04-30 19:15 33.58823 -112.22472 5978 ft 235 kts 189°
2026-04-30 19:16 33.57211 -112.22820 5608 ft 235 kts 189°
2026-04-30 19:16 33.55627 -112.23163 5251 ft 232 kts 190°
2026-04-30 19:16 33.52474 -112.23840 4535 ft 227 kts 190°
2026-04-30 19:17 33.50935 -112.24170 4267 ft 219 kts 190°
2026-04-30 19:17 33.48599 -112.24671 4265 ft 190 kts 189°
2026-04-30 19:17 33.47345 -112.24809 4222 ft 175 kts 171°
2026-04-30 19:18 33.45644 -112.23663 4074 ft 171 kts 132°
2026-04-30 19:18 33.44709 -112.22141 3854 ft 170 kts 123°
2026-04-30 19:18 33.44284 -112.20822 3893 ft 172 kts 103°
2026-04-30 19:19 33.44122 -112.19385 3819 ft 175 kts 94°
2026-04-30 19:19 33.44089 -112.17926 3597 ft 172 kts 92°
2026-04-30 19:19 33.44073 -112.15243 3170 ft 152 kts 91°
2026-04-30 19:20 33.44072 -112.13990 2960 ft 150 kts 91°
2026-04-30 19:20 33.44073 -112.12764 2765 ft 149 kts 91°
2026-04-30 19:20 33.44075 -112.10284 2393 ft 149 kts 91°
2026-04-30 19:21 33.44077 -112.09050 2215 ft 148 kts 91°
2026-04-30 19:21 33.44098 -112.06414 1790 ft 161 kts 90°
2026-04-30 19:22 33.44088 -112.03727 1332 ft 157 kts 90°
2026-04-30 19:22 33.44081 -112.00693 1120 ft 51 kts 91°
2026-04-30 19:23 33.43704 -112.00468 1122 ft 26 kts 180°
2026-04-30 19:24 33.43341 -112.00467 1123 ft 19 kts 175°
2026-04-30 19:24 33.43284 -112.00349 1123 ft 20 kts 88°
2026-04-30 19:24 33.43296 -112.00043 1120 ft 7 kts 35°
2026-04-30 19:25 33.43424 -112.00144 1127 ft 2 kts 268°
2026-04-30 19:26 33.43424 -112.00148 1127 ft 0 kts 268°